Regional Weather Roundup
Issued by NWS

Home | Current Version | Previous Version | Graphics & Text | Print | Product List | Glossary On
Versions: 1 2 3 4 5 6 7 8 9 10 11 12 13 14 15 16 17 18 19 20 21 22 23 24 25 26 27 28 29 30 31 32 33 34 35 36 37 38 39 40 41 42 43 44 45 46 47 48 49 50
000
ASUS43 KMKX 070120
RWRWI

WISCONSIN REGIONAL WEATHER ROUNDUP
NATIONAL WEATHER SERVICE MILWAUKEE/SULLIVAN WI
700 PM CST SAT FEB 06 2016

NOTE: "FAIR" INDICATES FEW OR NO CLOUDS BELOW 12,000 FEET WITH NO
SIGNIFICANT WEATHER AND/OR OBSTRUCTIONS TO VISIBILITY.

WIZ001-002-006>008-014>016-023>028-070200-
NORTHWEST WISCONSIN

CITY           SKY/WX    TMP DP  RH WIND       PRES   REMARKS
SUPERIOR ARPT  CLOUDY    35  26  71 SW12      29.76F WCI  26
ASHLAND        CLOUDY    34  24  67 S10       29.81F WCI  26
HAYWARD        CLOUDY    32  23  69 S15       29.82F WCI  22
SIREN          CLOUDY    33  26  74 S14G22    29.79F WCI  23
CUMBERLAND     CLOUDY    32  25  74 S13       29.82F WCI  22
RICE LAKE      CLOUDY    31  25  79 SE13      29.86F WCI  21
CHETEK         CLOUDY    31  25  79 S9        29.87F WCI  23
LADYSMITH      CLOUDY    32  25  74 S8        29.89F WCI  25
EAU CLAIRE     CLOUDY    32  23  69 S13       29.90F WCI  22
MENOMONIE      CLOUDY    32  25  76 S13       29.90F WCI  22
NEW RICHMOND   CLOUDY    32  26  77 S18G26    29.84F WCI  20
OSCEOLA        CLOUDY    33  27  79 S12       29.86S WCI  25
$$

WIZ003>005-009-010-017-018-070200-
NORTH CENTRAL WISCONSIN

CITY           SKY/WX    TMP DP  RH WIND       PRES   REMARKS
MANITOWISH WTR CLOUDY    30  22  71 S10       29.84F WCI  21
ARBOR VITAE    CLOUDY    32  23  70 S13       29.86F WCI  22
WOODRUFF       CLOUDY    32  23  70 S13       29.86F WCI  22
RHINELANDER    CLOUDY    30  21  69 S10       29.89F WCI  21
EAGLE RIVER    CLOUDY    29  20  67 S8        29.87F WCI  21
LAND O LAKES   CLOUDY    30  22  71 S7        29.86F WCI  23
PHILLIPS       CLOUDY    31  22  70 S13       29.86F WCI  21
TOMAHAWK       CLOUDY    30  22  71 S5        29.90F WCI  25
MEDFORD        CLOUDY    29  23  78 S10       29.90F WCI  20
MERRILL        CLOUDY    31  23  73 SW6       29.94F WCI  25
$$

WIZ029-030-035-036-043>047-070200-
CENTRAL WISCONSIN

CITY           SKY/WX    TMP DP  RH WIND       PRES   REMARKS
WAUSAU         CLOUDY    32  22  66 S14       29.93F WCI  22
MOSINEE        PTCLDY    28  25  86 S10       29.96F WCI  19
MARSHFIELD     MOCLDY    31  21  66 S14       29.93F WCI  21
STEVENS POINT  CLOUDY    29  23  78 S12       29.98F WCI  19
WAUPACA        CLOUDY    32  26  77 S7        30.02F WCI  26
WAUTOMA        CLOUDY    31  25  78 S7        30.03F WCI  24
WISC RAPIDS    MOCLDY    31  22  69 S8        30.00F WCI  23
CAMP DOUGLAS   CLOUDY    32  28  88 S9        29.99F WCI  24
$$

WIZ011>013-019>022-031-037>040-048>050-070200-
NORTHEAST WISCONSIN

CITY           SKY/WX    TMP DP  RH WIND       PRES   REMARKS
ANTIGO         CLOUDY    28  24  84 S12       29.94F WCI  18
SHAWANO        CLOUDY    32  26  77 S3        30.00F
OCONTO         CLOUDY    29  26  86 S5        30.02F WCI  24
STURGEON BAY   CLOUDY    28  21  74 S8        30.04F WCI  20
GREEN BAY      CLOUDY    30  24  78 S13       30.03F WCI  20
MANITOWOC      CLOUDY    29  24  82 S6        30.07S WCI  23
APPLETON       CLOUDY    28  23  80 S10       30.01F WCI  19
CLINTONVILLE   CLOUDY    30  25  80 S6        30.01F WCI  24
OSHKOSH        CLOUDY    29  23  78 S10       30.04F WCI  20
$$

WIZ032>034-041-042-053>061-070200-
SOUTHWEST WISCONSIN

CITY           SKY/WX    TMP DP  RH WIND       PRES   REMARKS
LA CROSSE      CLOUDY    30  24  78 S14       30.00F WCI  19
SPARTA         CLOUDY    31  25  78 SW9       30.00F WCI  23
VIROQUA        CLOUDY    28  26  92 S9        30.00F WCI  19
BOSCOBEL       CLOUDY    31  28  89 SW7       30.07F WCI  24
PRAIRIE DU CHI MOCLDY    31  26  79 S7        30.06F WCI  25
PLATTEVILLE    CLOUDY    28  26  93 S8        30.07F WCI  20
$$

WIZ056-057-062-063-064-067-068-070200-
SOUTH CENTRAL WISCONSIN

CITY           SKY/WX    TMP DP  RH WIND       PRES   REMARKS
REEDSBURG      MOCLDY    29  26  86 S8        30.04F WCI  21
BARABOO/DELLS  CLOUDY    29  25  83 SW9       30.04F WCI  21
LONE ROCK      CLOUDY    30  25  81 S7        30.08F WCI  23
MINERAL POINT  CLOUDY    32  28  86 S7        30.06F WCI  26
MADISON        CLOUDY    29  24  82 SW8       30.08F WCI  21
MIDDLETON      CLOUDY    30  26  84 SW10      30.08F WCI  21
WATERTOWN      PTCLDY    27  27 100 S5        30.08F WCI  21
MONROE         CLOUDY    30  28  93 SW12      30.09F WCI  21
JANESVILLE     CLEAR     30  28  93 SW3       30.11S
$$

WIZ051-052-058>065-066-070>072-070200-
SOUTHEAST WISCONSIN

CITY           SKY/WX    TMP DP  RH WIND       PRES   REMARKS
MILWAUKEE      PTCLDY    31  25  78 SW3       30.10F
WAUKESHA       CLEAR     27  25  93 CALM      30.10F
MILWAUKEE/TIMM CLEAR     30  25  80 SW6       30.10F WCI  24
RACINE         CLEAR     31  25  78 SW5       30.12F WCI  26
BURLINGTON     CLEAR     26  24  91 CALM      30.10F
KENOSHA        CLEAR     30  24  78 S5        30.11F WCI  25
FOND DU LAC    CLOUDY    30  25  81 S12       30.05F WCI  20
SHEBOYGAN        N/A     29  24  82 S12       30.06F WCI  19
WEST BEND      MOCLDY    30  27  86 SW6       30.07F WCI  24
JUNEAU         CLOUDY    27  24  89 S9        30.08F WCI  18
$$

LSZ147-162-070200-
LAKE SUPERIOR

STATION/POSITION TIME  TEMP    WIND        PRES    WAVE
                       AIR SEA DIR/SP/G            HT/PER
                 (UTC) (F)     (DEG/KT/KT) (MB)    (FT/S)
DEVILS ISLAND    0100   33     190/  3/  6 1009.6F
PORT WING        0000          180/ 13/ 20   N/A
SAXON HARBOR     0000   37                 1010.2R
$$

LMZ867-665-643>646-070200-
LAKE MICHIGAN

STATION/POSITION TIME  TEMP    WIND        PRES    WAVE
                       AIR SEA DIR/SP/G            HT/PER
                 (UTC) (F)     (DEG/KT/KT) (MB)    (FT/S)
CHAMBERS ISLAND  0000   28     180/  7/ 13 1016.9F
ALGOMA LAKESHORE 0041          220/  9/ 10   N/A
KEWAUNEE LAKESHO 0000   30     200/  5/  7 1017.1F
SHEBOYGAN LAKESH 0100   31     200/ 10/ 12 1019.3F
PORT WASHINGTON  0000   32     210/  3/  6 1020.3
MILWAUKEE LAKESH 0010   33     240/  6/  7   N/A
KENOSHA   LAKESH 0100   36     220/  4/  6 1019.6F
$$

TC  - TEMPERATURE IN CELSIUS
VSB - VISIBILITY IN STATUTE MILES
WCI - WIND CHILL INDEX
HX  - HEAT INDEX




USA.gov is the U.S. government's official web portal to all federal, state and local government web resources and services.